Date,TemperatureHighF,TemperatureAvgF,TemperatureLowF,DewpointHighF,DewpointAvgF,DewpointLowF,HumidityHigh,HumidityAvg,HumidityLow,PressureMaxIn,PressureMinIn,WindSpeedMaxMPH,WindSpeedAvgMPH,GustSpeedMaxMPH,PrecipitationSumIn
2013-3-1,35,31,26,27,21,14,81,66,53,30.11,29.95,11,5,11,0.00
2013-3-2,34,28,25,18,15,11,64,58,48,30.10,30.04,13,4,13,0.00
2013-3-3,34,27,21,18,12,8,66,55,38,30.08,30.01,14,4,14,0.00
2013-3-4,36,27,17,20,14,9,80,58,37,30.11,30.01,9,2,9,0.00
2013-3-5,34,30,27,28,23,19,95,75,59,30.04,29.75,15,6,15,0.00
2013-3-6,36,31,26,31,27,24,92,84,69,30.22,29.84,12,4,12,0.06
2013-3-7,39,34,24,30,25,18,88,72,53,30.38,30.20,13,3,13,0.00
2013-3-8,44,30,17,24,19,12,85,64,42,30.46,30.35,8,2,8,0.00
2013-3-9,45,36,25,33,26,16,76,65,51,30.35,29.93,14,4,14,0.00
2013-3-10,60,50,38,43,38,32,92,65,52,29.93,29.70,16,4,16,0.07
2013-3-11,55,46,35,49,41,28,97,85,54,29.73,29.52,20,7,20,0.05
2013-3-12,37,33,30,30,26,20,91,76,52,29.93,29.73,17,8,17,0.00
2013-3-13,33,27,24,26,18,9,87,68,45,30.25,29.92,21,6,21,0.01
2013-3-14,43,32,20,25,16,9,69,54,34,30.27,30.09,11,4,11,0.00
2013-3-15,48,38,31,40,32,26,96,79,57,30.09,29.78,11,4,11,0.06
2013-3-16,39,34,29,38,30,19,97,84,65,30.06,29.65,14,5,14,0.00
2013-3-17,38,31,28,22,18,15,70,58,42,30.19,30.05,19,5,19,0.00
2013-3-18,35,31,28,33,26,16,92,81,60,30.05,29.57,22,6,22,0.06
2013-3-19,35,28,20,20,11,7,67,51,32,30.00,29.72,30,12,30,0.01
2013-3-20,30,23,18,14,9,2,75,55,40,30.00,29.95,19,8,19,0.00
2013-3-21,32,24,16,19,13,9,82,65,46,29.99,29.91,21,5,21,0.02
2013-3-22,41,30,20,19,14,4,75,53,25,30.04,29.96,17,4,17,0.00
2013-3-23,40,30,23,23,19,15,80,62,46,30.11,29.98,14,3,14,0.00
2013-3-24,38,32,28,23,21,18,75,63,48,29.99,29.59,23,8,23,0.00
2013-3-25,37,33,29,28,24,19,88,70,55,29.95,29.58,19,6,19,0.02
2013-3-26,38,35,34,28,25,22,77,68,56,30.17,29.70,15,6,15,0.02
2013-3-27,45,37,29,32,24,15,84,61,33,30.26,30.17,20,5,20,0.00
2013-3-28,52,38,25,27,19,14,73,48,27,30.29,30.24,13,3,13,0.00
2013-3-29,54,39,25,27,18,13,80,48,22,30.29,30.20,16,2,16,0.00
2013-3-30,57,42,25,32,24,16,76,52,31,30.22,29.90,14,3,14,0.00
2013-3-31,62,49,40,45,35,26,97,61,27,29.90,29.67,21,6,21,0.01